Wind_Speed
10 10 10 10 9 9 8 9 9 9 9 9 9 10 10 10 10 9 9 9 10 10 11 12 12 12 13 13 14 14 15 15 16 16 16 16 16 16 16 17 18 18 19
12 12 13 13 12 12 11 11 10 10 10 11 11 12 12 13 12 12 11 11 12 13 13 13 13 13 14 14 15 16 16 17 17 17 17 17 17 18 18 18 19 19 19
15 15 15 15 14 14 14 14 14 13 13 12 13 13 14 14 14 14 14 14 14 14 14 14 14 15 16 16 17 17 18 19 19 19 18 18 19 19 20 20 20 20 20
19 18 18 17 17 16 17 17 17 16 15 15 15 15 16 16 16 17 17 16 16 16 16 16 16 17 17 18 19 20 20 21 21 21 20 20 20 21 21 21 21 21 22
22 21 20 20 20 18 19 20 19 18 17 17 17 18 18 18 18 18 19 18 19 19 18 18 18 19 20 20 21 21 22 22 23 23 23 22 22 22 22 22 22 23 23
25 23 23 22 22 21 22 22 22 21 21 21 20 20 20 20 20 20 20 20 21 21 20 20 20 21 22 22 23 23 24 24 24 25 25 24 24 24 24 24 24 24 24
27 26 26 25 24 24 25 24 24 24 24 24 23 23 22 22 22 22 23 22 22 22 22 22 22 22 23 24 24 24 25 25 25 25 25 25 25 25 25 25 26 26 26
28 28 27 27 27 27 26 26 26 25 25 25 26 25 25 25 26 26 24 24 25 24 24 24 23 24 25 25 25 26 26 26 27 27 27 26 26 26 27 27 27 28 28
30 30 29 29 30 29 29 29 29 28 28 28 28 28 27 27 28 28 27 27 26 26 25 24 25 25 26 26 26 26 27 27 28 28 27 28 28 28 29 30 30 30 30
33 32 31 31 31 32 32 31 31 31 31 31 30 30 30 30 30 29 28 28 27 26 26 26 26 27 27 27 27 28 28 28 28 29 29 29 29 30 30 31 31 32 32
35 33 34 34 34 35 35 34 34 34 34 33 33 32 33 33 32 31 30 29 28 28 28 28 29 29 28 28 29 29 29 29 29 29 30 31 31 32 32 32 32 33 33
38 36 36 36 36 36 36 36 35 35 35 35 34 33 34 34 34 32 30 29 30 29 29 29 30 30 30 30 30 30 30 31 31 31 31 32 32 32 33 33 33 34 35
37 37 37 37 37 36 36 36 37 36 36 36 35 34 33 33 32 31 29 29 29 30 30 31 31 31 31 31 32 32 32 32 32 32 32 32 33 33 34 34 35 35 35
36 37 36 36 36 36 35 36 36 36 36 35 36 35 35 33 32 31 30 30 30 30 31 31 32 31 32 33 33 33 34 34 34 33 33 33 34 35 35 35 35 36 37
37 37 37 37 37 37 37 37 37 35 35 35 35 35 34 34 34 33 32 32 32 33 33 32 33 33 34 33 34 34 35 35 35 35 35 35 35 36 36 36 36 37 37
38 38 38 38 37 37 37 37 36 36 36 35 34 34 34 35 34 34 34 34 35 35 34 34 34 34 34 35 34 34 34 34 35 35 36 36 37 37 38 38 38 38 38
39 39 39 38 38 38 38 38 37 36 37 36 35 34 34 34 35 36 36 36 36 36 36 36 36 36 35 35 35 35 34 35 36 37 38 38 38 39 39 38 38 37 37
38 38 38 38 39 39 38 39 38 37 36 35 35 36 37 37 36 36 37 37 37 37 37 36 36 36 36 36 36 36 36 37 37 38 38 39 39 39 39 38 37 37 37
37 38 38 38 38 38 37 37 38 37 36 36 36 37 38 38 38 38 39 38 38 38 38 38 38 38 37 37 36 37 37 38 38 38 38 38 39 38 38 38 38 37 37
36 36 36 37 37 37 37 37 36 36 35 35 36 36 37 37 38 38 38 37 37 38 38 38 38 38 38 37 37 37 37 38 38 38 38 38 38 38 38 37 37 37 37
34 35 35 36 36 36 36 36 35 35 35 35 35 36 36 37 37 36 36 35 35 36 36 36 36 37 36 36 36 36 37 36 36 36 36 36 36 36 36 36 36 36 36
33 33 34 34 34 34 34 34 34 34 34 35 35 35 35 35 35 35 35 35 35 36 36 36 36 35 35 34 34 33 33 33 33 33 34 34 35 35 35 35 35 36 36
30 31 31 31 31 31 32 32 32 32 33 33 34 34 34 34 34 34 33 33 34 34 35 34 33 33 32 32 33 32 32 32 33 33 33 33 34 34 35 35 35 35 35
27 27 27 28 29 29 29 29 30 30 30 30 31 31 31 31 32 32 32 32 32 32 32 32 32 32 31 31 31 31 32 32 31 31 32 33 34 34 34 34 35 35 35
23 23 24 24 25 25 26 26 27 27 27 27 27 28 29 29 29 30 30 30 30 31 31 31 32 32 32 31 31 31 31 31 31 32 32 33 32 33 33 34 34 34 34
20 20 20 21 21 22 22 22 23 24 25 25 25 26 27 28 28 28 29 29 29 29 30 30 30 31 30 30 30 30 31 31 32 32 32 32 31 31 32 33 33 33 33
Wind_Direction
287 291 298 298 296 298 302 302 302 306 306 303 307 310 312 314 313 309 305 297 295 292 289 292 293 290 284 283 283 282 283 283 283 285 283 280 279 280 282 284 284 282 282
282 285 290 291 291 289 292 294 296 296 296 296 297 299 301 303 302 299 297 298 296 294 294 293 292 293 291 288 287 285 285 284 286 288 286 282 281 280 282 283 284 283 281
278 280 283 282 283 285 288 289 288 287 288 288 290 292 295 296 295 294 297 295 296 296 295 296 293 292 293 291 290 290 289 287 287 289 289 285 283 284 285 284 284 283 284
276 276 279 279 283 282 282 284 287 285 286 286 287 289 289 291 292 292 292 293 293 292 292 291 291 292 293 292 289 288 288 287 286 286 286 286 283 282 283 284 284 284 284
273 273 276 278 279 280 280 279 280 282 282 285 287 288 289 289 290 289 289 289 289 290 290 289 289 290 292 292 290 288 288 287 285 284 284 284 282 281 281 282 283 284 283
272 271 273 273 276 280 281 279 279 281 279 281 282 283 284 286 288 287 285 285 288 291 292 292 291 289 291 291 289 288 288 288 286 284 283 282 283 282 282 282 282 284 284
269 269 272 272 274 275 276 277 276 278 278 279 277 278 280 282 284 284 283 283 286 288 288 290 293 291 292 291 288 288 288 288 286 283 281 280 281 281 280 281 283 283 284
270 272 274 276 277 277 277 278 276 277 277 276 276 277 278 278 279 281 282 283 283 285 286 286 288 288 289 288 286 287 287 286 285 283 281 280 280 281 281 281 282 283 284
272 273 273 273 274 275 275 275 275 275 277 276 276 277 277 279 280 281 281 283 284 286 287 285 287 288 288 287 285 286 287 285 284 283 280 280 280 280 282 282 282 283 283
272 271 271 273 273 274 273 274 274 274 275 275 276 276 275 276 277 279 280 283 283 284 284 284 287 288 287 286 285 284 285 285 284 282 281 281 281 281 281 283 284 283 283
270 268 269 270 271 272 273 274 273 273 273 274 274 274 274 274 273 274 277 278 279 280 282 282 284 285 284 283 283 284 284 284 284 283 283 282 281 282 282 283 283 284 284
270 269 270 270 270 271 271 273 275 275 274 273 273 274 276 278 278 278 277 279 280 280 280 279 280 282 282 281 282 283 283 283 283 283 283 282 281 281 282 282 283 284 284
268 269 270 270 271 271 272 272 274 275 275 274 272 273 275 277 278 278 278 280 281 281 282 280 279 279 280 279 279 281 282 283 283 284 283 283 282 282 284 284 284 284 285
269 269 271 271 274 274 274 273 273 273 274 274 273 271 272 273 275 278 279 282 282 283 283 281 280 280 279 279 279 279 281 281 281 283 284 285 285 284 284 285 286 286 286
270 272 273 273 274 275 273 272 273 274 273 273 275 273 271 273 275 277 278 279 280 280 281 281 281 280 279 279 279 279 280 280 279 281 282 283 284 285 285 286 287 288 287
272 272 272 273 274 274 273 273 273 273 274 275 277 277 275 274 276 276 276 277 278 279 278 279 279 280 280 280 279 279 279 279 279 279 281 282 283 284 284 286 288 288 287
271 271 271 272 274 274 273 272 273 274 275 276 276 277 278 277 277 276 275 276 277 278 278 278 278 279 281 281 280 280 279 279 279 280 280 282 283 283 284 285 285 286 286
270 271 272 272 273 274 273 272 272 272 273 274 275 277 278 278 278 277 277 277 278 279 278 278 278 280 281 280 280 280 280 280 281 282 282 283 283 284 284 285 284 284 285
270 271 272 273 273 274 273 273 273 271 272 273 274 276 277 278 276 276 276 277 277 276 277 278 279 280 280 280 280 280 281 282 281 281 282 283 284 283 283 284 283 282 284
270 271 272 273 273 274 274 274 273 273 274 274 275 276 276 276 276 275 275 275 275 275 277 278 278 279 279 279 280 280 281 281 281 281 281 282 283 283 282 282 283 282 282
270 271 272 274 274 274 274 273 273 273 274 274 275 276 276 275 275 274 274 275 276 276 277 278 278 279 279 280 279 279 279 280 280 281 281 282 283 283 283 282 282 283 284
273 274 274 274 274 274 274 274 272 273 273 274 275 276 276 275 275 274 274 275 275 276 277 278 278 278 278 278 278 278 278 279 281 281 282 283 283 283 283 283 284 285 285
275 275 275 275 273 273 274 273 273 274 274 274 274 275 275 275 275 275 274 274 275 277 278 277 277 278 278 278 278 278 279 280 281 283 284 283 283 284 284 284 285 285 286
276 276 276 276 276 276 275 275 275 275 274 274 274 275 276 277 276 275 276 276 276 276 277 276 277 279 278 279 280 280 282 282 283 284 285 285 285 285 285 285 285 285 286
279 280 281 282 280 280 279 277 276 276 276 276 276 278 279 280 279 277 276 278 277 276 275 276 277 277 278 279 281 283 282 283 284 285 286 287 287 287 287 287 287 287 286
286 286 284 285 285 282 281 280 280 278 279 278 278 279 281 281 281 279 278 279 278 277 276 277 277 278 278 279 281 282 283 283 284 286 286 287 288 288 288 288 288 288 287
Height
5888 5887 5886 5885 5884 5883 5882 5881 5879 5878 5877 5875 5874 5873 5871 5870 5868 5867 5866 5864 5864 5863 5862 5861 5860 5859 5858 5858 5857 5856 5855 5854 5853 5852 5850 5849 5848 5847 5846 5845 5844 5842 5841
5884 5883 5883 5882 5881 5880 5879 5877 5876 5875 5874 5872 5871 5869 5868 5866 5865 5864 5862 5861 5860 5859 5858 5857 5856 5855 5854 5853 5853 5852 5851 5850 5849 5847 5846 5845 5843 5842 5841 5840 5839 5837 5836
5880 5879 5878 5878 5877 5876 5875 5873 5872 5871 5870 5868 5867 5865 5864 5862 5861 5859 5858 5857 5856 5855 5853 5852 5851 5851 5850 5849 5848 5847 5846 5845 5843 5842 5841 5840 5838 5837 5836 5834 5833 5832 5830
5874 5873 5873 5873 5872 5871 5870 5869 5868 5866 5865 5863 5862 5861 5859 5858 5856 5855 5854 5852 5851 5850 5849 5848 5847 5846 5845 5844 5843 5841 5840 5839 5838 5837 5835 5834 5833 5831 5830 5829 5827 5826 5824
5867 5867 5867 5866 5866 5864 5864 5863 5863 5862 5860 5859 5857 5856 5855 5853 5851 5850 5849 5848 5846 5845 5843 5842 5841 5840 5839 5838 5837 5835 5834 5833 5831 5830 5829 5827 5826 5825 5824 5823 5821 5820 5818
5860 5859 5860 5859 5859 5858 5858 5857 5856 5855 5854 5853 5852 5850 5849 5847 5846 5844 5843 5842 5840 5839 5838 5836 5835 5834 5833 5832 5830 5829 5827 5826 5824 5823 5822 5821 5820 5818 5817 5816 5814 5813 5811
5852 5852 5851 5851 5851 5850 5850 5849 5848 5848 5847 5846 5845 5843 5842 5841 5839 5837 5836 5835 5834 5832 5831 5830 5828 5827 5826 5824 5823 5821 5820 5818 5817 5815 5814 5813 5812 5811 5810 5808 5807 5805 5804
5844 5844 5843 5843 5843 5842 5841 5841 5840 5839 5839 5838 5837 5836 5834 5833 5832 5829 5827 5827 5826 5825 5824 5823 5821 5820 5818 5816 5815 5813 5812 5810 5809 5807 5806 5805 5804 5803 5802 5801 5799 5797 5796
5836 5836 5836 5835 5835 5834 5834 5833 5832 5831 5831 5830 5829 5828 5827 5826 5824 5822 5819 5819 5818 5817 5816 5815 5813 5812 5810 5808 5807 5805 5804 5802 5800 5799 5798 5796 5795 5794 5793 5791 5790 5789 5787
5827 5826 5826 5826 5825 5825 5825 5824 5823 5823 5822 5821 5820 5819 5818 5817 5815 5813 5811 5811 5810 5809 5808 5806 5805 5803 5802 5800 5798 5797 5795 5793 5792 5790 5789 5787 5786 5784 5783 5782 5780 5779 5777
5816 5816 5816 5816 5816 5816 5815 5815 5814 5813 5813 5812 5811 5810 5808 5807 5805 5804 5803 5802 5801 5800 5799 5798 5796 5795 5793 5791 5790 5788 5786 5784 5783 5781 5780 5778 5776 5775 5774 5772 5771 5769 5768
5805 5805 5805 5805 5805 5805 5804 5804 5803 5803 5803 5802 5800 5800 5799 5797 5795 5793 5793 5792 5791 5791 5790 5789 5787 5785 5784 5782 5781 5779 5777 5776 5774 5772 5770 5769 5767 5765 5764 5762 5761 5759 5757
5794 5794 5794 5794 5793 5792 5792 5792 5793 5792 5792 5790 5789 5789 5788 5787 5785 5784 5783 5782 5781 5781 5780 5778 5777 5775 5774 5772 5771 5769 5768 5766 5764 5763 5761 5759 5757 5755 5753 5752 5750 5748 5746
5783 5783 5783 5782 5780 5780 5781 5781 5781 5781 5780 5779 5778 5778 5777 5776 5776 5774 5773 5773 5772 5771 5770 5768 5766 5765 5763 5762 5761 5759 5757 5756 5754 5753 5751 5749 5747 5745 5743 5741 5739 5737 5735
5773 5772 5772 5772 5771 5770 5770 5770 5770 5770 5769 5769 5768 5767 5766 5766 5765 5765 5764 5763 5762 5760 5759 5758 5757 5755 5753 5751 5750 5748 5747 5745 5744 5743 5741 5739 5737 5735 5732 5730 5728 5725 5723
5761 5762 5761 5761 5760 5759 5758 5758 5758 5758 5757 5757 5757 5756 5755 5755 5755 5754 5753 5752 5750 5749 5748 5746 5745 5743 5741 5740 5739 5737 5736 5734 5733 5731 5729 5728 5726 5723 5721 5719 5716 5714 5711
5750 5750 5749 5749 5749 5748 5747 5747 5747 5747 5746 5746 5746 5745 5744 5744 5743 5742 5741 5740 5739 5737 5736 5734 5733 5732 5731 5729 5727 5726 5724 5723 5721 5719 5717 5716 5714 5711 5709 5707 5705 5702 5699
5738 5738 5737 5737 5737 5736 5735 5735 5735 5735 5735 5734 5734 5733 5732 5732 5731 5730 5729 5728 5727 5725 5723 5722 5721 5720 5719 5717 5716 5714 5713 5711 5709 5707 5705 5703 5701 5699 5697 5695 5692 5690 5688
5726 5726 5725 5725 5725 5725 5724 5724 5723 5723 5722 5722 5722 5721 5720 5719 5719 5718 5717 5716 5715 5713 5712 5710 5709 5708 5706 5705 5703 5702 5700 5698 5697 5695 5693 5691 5689 5687 5685 5682 5680 5678 5676
5714 5714 5714 5713 5713 5713 5713 5712 5712 5711 5711 5710 5710 5709 5708 5708 5707 5706 5704 5703 5702 5701 5699 5698 5697 5696 5694 5692 5691 5689 5688 5686 5684 5682 5681 5678 5676 5674 5673 5670 5668 5666 5664
5703 5703 5702 5702 5701 5700 5700 5700 5700 5699 5699 5699 5698 5698 5697 5696 5695 5693 5692 5691 5690 5689 5687 5686 5684 5683 5682 5680 5679 5677 5675 5674 5672 5670 5669 5667 5665 5663 5661 5659 5657 5654 5652
5692 5691 5691 5690 5689 5689 5689 5689 5688 5688 5687 5687 5686 5686 5684 5683 5682 5681 5680 5679 5678 5677 5675 5674 5672 5671 5670 5669 5667 5665 5664 5662 5660 5659 5657 5655 5653 5651 5649 5647 5645 5643 5640
5682 5681 5680 5679 5678 5678 5678 5677 5677 5677 5676 5675 5675 5674 5672 5671 5670 5669 5668 5667 5666 5665 5664 5662 5661 5660 5659 5657 5656 5655 5653 5651 5650 5648 5646 5644 5642 5639 5637 5635 5633 5631 5628
5672 5671 5670 5669 5668 5667 5667 5666 5666 5665 5665 5664 5663 5662 5661 5660 5659 5658 5657 5656 5655 5654 5653 5652 5651 5650 5649 5647 5646 5644 5642 5640 5639 5637 5635 5633 5631 5628 5626 5624 5622 5619 5617
5663 5662 5661 5659 5658 5658 5657 5656 5656 5655 5654 5653 5653 5652 5651 5650 5648 5647 5646 5645 5644 5643 5642 5642 5641 5640 5638 5637 5635 5634 5632 5630 5628 5626 5624 5622 5620 5617 5615 5613 5610 5608 5606
5655 5654 5653 5652 5650 5649 5648 5648 5647 5646 5645 5644 5643 5642 5641 5640 5639 5638 5636 5635 5634 5633 5632 5631 5630 5629 5628 5627 5625 5623 5621 5620 5618 5616 5614 5612 5609 5607 5605 5602 5600 5597 5595